TimeEDT,TemperatureF,Dew PointF,Humidity,Sea Level PressureIn,VisibilityMPH,Wind Direction,Wind SpeedMPH,Gust SpeedMPH,PrecipitationIn,Events,Conditions,WindDirDegrees,DateUTC
12:58 AM,62.6,58.6,87,30.13,10.0,Calm,Calm,-,N/A,,Clear,0,2013-08-19 04:58:00
1:58 AM,61.0,57.6,88,30.12,10.0,SSW,4.6,-,N/A,,Clear,200,2013-08-19 05:58:00
2:58 AM,62.1,57.9,86,30.12,10.0,SSW,2.3,-,N/A,,Mostly Cloudy,200,2013-08-19 06:58:00
3:58 AM,60.6,57.7,90,30.11,10.0,NNW,1.2,-,N/A,,Scattered Clouds,330,2013-08-19 07:58:00
4:58 AM,60.8,58.1,91,30.11,10.0,Calm,Calm,-,N/A,,Clear,0,2013-08-19 08:58:00
5:58 AM,59.5,57.9,94,30.12,10.0,West,1.2,-,N/A,,Clear,280,2013-08-19 09:58:00
6:58 AM,57.6,56.8,97,30.12,10.0,Calm,Calm,-,N/A,,Scattered Clouds,0,2013-08-19 10:58:00
7:02 AM,57.2,57.2,100,30.11,10.0,Calm,Calm,-,N/A,,Scattered Clouds,0,2013-08-19 11:02:00
7:55 AM,60.8,59.5,96,30.14,6.0,Calm,Calm,-,N/A,,Haze,0,2013-08-19 11:55:00
8:55 AM,70.2,60.1,70,30.14,7.0,SW,3.5,-,N/A,,Scattered Clouds,220,2013-08-19 12:55:00
9:55 AM,75.2,59.5,58,30.13,10.0,SSW,4.6,-,N/A,,Partly Cloudy,210,2013-08-19 13:55:00
10:55 AM,76.6,60.1,56,30.13,10.0,Calm,Calm,-,N/A,,Clear,0,2013-08-19 14:55:00
11:55 AM,78.1,63.0,60,30.12,10.0,SSE,6.9,-,N/A,,Partly Cloudy,160,2013-08-19 15:55:00
12:55 PM,79.2,62.6,57,30.12,10.0,SSE,6.9,-,N/A,,Partly Cloudy,160,2013-08-19 16:55:00
1:55 PM,80.2,62.4,54,30.10,10.0,SSE,8.1,-,N/A,,Partly Cloudy,160,2013-08-19 17:55:00
2:55 PM,80.4,62.1,53,30.09,10.0,SSE,11.5,-,N/A,,Partly Cloudy,160,2013-08-19 18:55:00
3:55 PM,80.6,62.4,54,30.07,10.0,South,10.4,-,N/A,,Partly Cloudy,170,2013-08-19 19:55:00
4:55 PM,80.6,62.8,54,30.06,10.0,South,9.2,-,N/A,,Partly Cloudy,170,2013-08-19 20:55:00
5:55 PM,82.0,46.6,29,30.06,10.0,WSW,8.1,-,N/A,,Clear,240,2013-08-19 21:55:00
6:55 PM,80.6,50.7,35,30.06,10.0,WNW,8.1,-,N/A,,Clear,290,2013-08-19 22:55:00
7:55 PM,77.7,52.5,41,30.05,10.0,WNW,5.8,-,N/A,,Clear,290,2013-08-19 23:55:00
8:58 PM,72.7,54.5,53,30.04,10.0,Calm,Calm,-,N/A,,Clear,0,2013-08-20 00:58:00
9:03 PM,69.8,55.4,60,30.04,9.0,NE,2.3,-,N/A,,Clear,50,2013-08-20 01:03:00
9:13 PM,71.6,55.4,57,30.05,10.0,Calm,Calm,-,N/A,,Clear,0,2013-08-20 01:13:00
9:58 PM,68.9,55.6,62,30.06,10.0,Calm,Calm,-,N/A,,Clear,0,2013-08-20 01:58:00
10:58 PM,66.2,56.3,70,30.06,10.0,Calm,Calm,-,N/A,,Clear,0,2013-08-20 02:58:00
11:58 PM,65.8,57.6,75,30.06,10.0,SSW,2.3,-,N/A,,Clear,210,2013-08-20 03:58:00